Weather History for Dothan, AL

Change the Weather History Date:

Wednesday, October 23, 2013

  Actual Average Record
Temperature  
Mean Temperature 60 °F 65 °F  
Max Temperature 73 °F 78 °F 92 °F (1941)
Min Temperature 47 °F 53 °F 41 °F (2011)
Degree Days  
Heating Degree Days 5 3  
Month to date heating degree days 5 27  
Since 1 July heating degree days 5 29  
Cooling Degree Days 0 3  
Month to date cooling degree days 140 113  
Year to date cooling degree days 2278 2341  
Growing Degree Days 12 (Base 50)    
Moisture  
Dew Point 44 °F    
Average Humidity 62    
Maximum Humidity 93    
Minimum Humidity 24    
Precipitation  
Precipitation 0.00 in 0.11 in 1.20 in (2008)
Month to date precipitation 0.48 2.50  
Year to date precipitation 66.69 44.48  
Sea Level Pressure  
Sea Level Pressure 30.03 in    
Wind  
Wind Speed 8 mph (NW)    
Max Wind Speed 17 mph    
Max Gust Speed 24 mph    
Visibility 10 miles    
Events      
T = Trace of Precipitation, MM = Missing Value Source: NWS Daily Summary

Daily Weather History Graph

Daily Weather History Graph

Search for Another Location

Airport:

Trip Planner

Search our weather history database for the weather conditions in past years. The results will help you decide how hot, cold, wet, or windy it might be!

Date:

Astronomy

Oct. 23, 2013 Rise Set
Actual Time 6:50 AM CDT 6:01 PM CDT
Civil Twilight 6:25 AM CDT 6:25 PM CDT
Nautical Twilight 5:57 AM CDT 6:54 PM CDT
Astronomical Twilight 5:29 AM CDT 7:22 PM CDT
Moon 9:40 PM CDT (10/23) 10:57 AM CDT (10/23)
Length of Visible Light 11h 59m
Length of Day
11h 10m
Waning Gibbous, 79% of the Moon is Illuminated
Oct 23
Waning Gibbous
Oct 26
Last Quarter
Nov 3
New
Nov 9
First Quarter
Nov 17
Full

Hourly Weather History & Observations

Time (CDT) Temp. Dew Point Humidity Pressure Visibility Wind Dir Wind Speed Gust Speed Precip Events Conditions
12:53 AM 57.9 °F 54.0 °F 87% 29.94 in 10.0 mi NNW 5.8 mph - N/A   Clear
1:53 AM 55.9 °F 53.1 °F 90% 29.95 in 10.0 mi NW 5.8 mph - N/A   Clear
2:53 AM 55.0 °F 52.0 °F 89% 29.95 in 10.0 mi NW 4.6 mph - N/A   Clear
3:53 AM 55.0 °F 52.0 °F 89% 29.95 in 10.0 mi NW 6.9 mph - N/A   Clear
4:53 AM 53.1 °F 51.1 °F 93% 29.96 in 10.0 mi WNW 4.6 mph - N/A   Clear
5:53 AM 53.1 °F 50.0 °F 89% 29.98 in 10.0 mi NW 6.9 mph - N/A   Clear
6:53 AM 52.0 °F 50.0 °F 93% 30.00 in 10.0 mi NW 8.1 mph - N/A   Clear
7:53 AM 55.0 °F 50.0 °F 83% 30.01 in 10.0 mi NW 9.2 mph - N/A   Clear
8:53 AM 60.1 °F 50.0 °F 69% 30.03 in 10.0 mi NW 10.4 mph - N/A   Clear
9:53 AM 64.0 °F 48.9 °F 58% 30.04 in 10.0 mi NNW 10.4 mph - N/A   Clear
10:53 AM 66.9 °F 48.0 °F 51% 30.04 in 10.0 mi NNW 11.5 mph 21.9 mph N/A   Clear
11:53 AM 69.1 °F 43.0 °F 39% 30.04 in 10.0 mi NNW 17.3 mph 24.2 mph N/A   Clear
12:53 PM 71.1 °F 37.9 °F 30% 30.03 in 10.0 mi NNW 16.1 mph 21.9 mph N/A   Clear
1:53 PM 72.0 °F 34.0 °F 25% 30.00 in 10.0 mi NW 15.0 mph 23.0 mph N/A   Clear
2:53 PM 73.0 °F 34.0 °F 24% 30.00 in 10.0 mi NW 16.1 mph 23.0 mph N/A   Clear
3:53 PM 71.1 °F 34.0 °F 26% 30.01 in 10.0 mi NW 16.1 mph 20.7 mph N/A   Clear
4:53 PM 69.1 °F 33.1 °F 26% 30.02 in 10.0 mi NNW 12.7 mph - N/A   Clear
5:53 PM 64.0 °F 37.0 °F 37% 30.04 in 10.0 mi NNW 8.1 mph - N/A   Clear
6:53 PM 57.9 °F 39.9 °F 51% 30.06 in 10.0 mi NW 5.8 mph - N/A   Clear
7:53 PM 55.0 °F 42.1 °F 62% 30.09 in 10.0 mi NNW 3.5 mph - N/A   Clear
8:53 PM 55.0 °F 42.1 °F 62% 30.12 in 10.0 mi WNW 5.8 mph - N/A   Clear
9:53 PM 53.1 °F 42.1 °F 66% 30.13 in 10.0 mi NW 5.8 mph - N/A   Clear
10:53 PM 50.0 °F 43.0 °F 77% 30.14 in 10.0 mi NNW 5.8 mph - N/A   Clear
11:53 PM 48.9 °F 43.0 °F 80% 30.14 in 10.0 mi NNW 5.8 mph - N/A   Clear